Regional Weather Roundup
Issued by NWS

Home | Current Version | Previous Version | Graphics & Text | Print | Product List | Glossary On
Versions: 1 2 3 4 5 6 7 8 9 10 11 12 13 14 15 16 17 18 19 20 21 22 23 24 25 26 27 28 29 30 31 32 33 34 35 36 37 38 39 40 41 42 43 44 45 46 47 48 49 50
798
ASUS44 KJAN 210010
RWRMS

MISSISSIPPI HOURLY WEATHER ROUNDUP
NATIONAL WEATHER SERVICE JACKSON MS
700 PM CDT SUN APR 20 2014

NOTE: "FAIR: INDICATES FEW OR NO CLOUDS BELOW 12,000 FEET WITH NO
SIGNIFICANT WEATHER AND/OR OBSTRUCTIONS TO VISIBILITY.

MSZ001>002-007>008-010>013-018>021-025>028-034>036-210100-
NORTHWEST MISSISSIPPI

CITY           SKY/WX    TMP DP  RH WIND       PRES   REMARKS
CLARKSDALE       N/A     75  50  41 SE5       30.09F
CLEVELAND      FAIR      77  50  39 SE6       30.08F
GREENWOOD      PTCLDY    76  48  37 E3        30.09F
6HR MIN TEMP:  76; 6HR MAX TEMP:  81;

GREENVILLE     PTCLDY    78  47  33 SE9       30.07F
6HR MIN TEMP:  76; 6HR MAX TEMP:  82;

GRENADA        FAIR      73  48  40 CALM      30.10F
OLIVE BRANCH   PTCLDY    73  48  40 S3        30.09F
OXFORD         LGT RAIN  73  46  38 CALM      30.12S
TUNICA         CLEAR     73  48  40 S5        30.09F
$$

MSZ003>006-009-014>017-022>024-029>033-037>039-210100-
NORTHEAST MISSISSIPPI

CITY           SKY/WX    TMP DP  RH WIND       PRES   REMARKS
BELMONT        FAIR      73  52  48 CALM      30.10S
COLUMBUS AFB   PTCLDY    74  50  42 W5        30.10F
6HR MIN TEMP:  74; 6HR MAX TEMP:  80;

CORINTH        FAIR      77  45  31 CALM      30.10S
GOLDN TRIANGLE CLEAR     73  52  46 SW6       30.14S
STARKVILLE     FAIR      72  50  46 CALM      30.11F
TUPELO         PTCLDY    75  47  36 W3        30.10F
6HR MIN TEMP:  70; 6HR MAX TEMP:  79;

$$

MSZ040-058-210100-
CENTRAL MISSISSIPPI

CITY           SKY/WX    TMP DP  RH WIND       PRES   REMARKS
JACKSON INTL   PTCLDY    76  54  46 N3        30.09F
6HR MIN TEMP:  76; 6HR MAX TEMP:  82;

JACKSON HAWKNS CLEAR     78  47  33 CALM      30.09F
6HR MIN TEMP:  77; 6HR MAX TEMP:  82;

MERIDIAN KEY   CLEAR     74  49  41 E3        30.11S
6HR MIN TEMP:  73; 6HR MAX TEMP:  79;

MERIDIAN NAS   CLEAR     74  49  41 CALM      30.12S
6HR MIN TEMP:  71; 6HR MAX TEMP:  78;

RAYMOND        FAIR      75  70  83 MISG      30.09S
VICKSBURG      CLEAR     77  54  44 E6        30.07F
6HR MIN TEMP:  77; 6HR MAX TEMP:  82;

$$

MSZ059>079-210100-
SOUTH MISSISSIPPI

CITY           SKY/WX    TMP DP  RH WIND       PRES   REMARKS
BROOKHAVEN     FAIR      77  55  47 CALM      30.11F
COLUMBIA       FAIR      73  54  49 MISG      30.09F
HATTIESBURG    CLEAR     78  50  37 NE3       30.11S
6HR MIN TEMP:  76; 6HR MAX TEMP:  81; 6HR PCP: TRACE;

MCCOMB         CLEAR     77  50  38 SE5       30.09F
6HR MIN TEMP:  77; 6HR MAX TEMP:  82;

NATCHEZ        CLEAR     79  52  38 W3        30.07F
6HR MIN TEMP:  79; 6HR MAX TEMP:  82;

PINE BELT      CLEAR     75  48  38 CALM      30.12S
6HR MIN TEMP:  75; 6HR MAX TEMP:  79;

$$

MSZ080>082-210100-
COASTAL MISSISSIPPI

CITY           SKY/WX    TMP DP  RH WIND       PRES   REMARKS
BAY ST LOUIS   CLEAR     70  59  68 SE8       30.11R
BILOXI         CLEAR     66  58  74 S7        30.11F
6HR MIN TEMP:  66; 6HR MAX TEMP:  78;

PASCAGOULA     CLEAR     66  58  75 SW7       30.11S
6HR MIN TEMP:  66; 6HR MAX TEMP:  80;

GULFPORT       CLEAR     69  57  65 SE8       30.11S
6HR MIN TEMP:  69; 6HR MAX TEMP:  82;

$$



USA.gov is the U.S. government's official web portal to all federal, state and local government web resources and services.